TimePST,TemperatureF,Dew PointF,Humidity,Sea Level PressureIn,VisibilityMPH,Wind Direction,Wind SpeedMPH,Gust SpeedMPH,PrecipitationIn,Events,Conditions,WindDirDegrees,DateUTC
12:53 AM,48.0,44.1,86,30.13,10.0,Calm,Calm,-,N/A,,Overcast,0,2011-12-19 08:53:00
1:32 AM,48.2,44.6,87,30.11,10.0,East,3.5,-,N/A,,Overcast,90,2011-12-19 09:32:00
1:53 AM,48.2,44.6,87,30.11,10.0,Calm,Calm,-,N/A,,Overcast,0,2011-12-19 09:53:00
2:19 AM,48.2,44.6,87,30.11,10.0,East,5.8,-,N/A,,Overcast,90,2011-12-19 10:19:00
2:53 AM,48.0,44.1,86,30.10,10.0,SE,3.5,-,N/A,,Overcast,130,2011-12-19 10:53:00
3:53 AM,46.4,42.8,87,30.09,10.0,Calm,Calm,-,N/A,,Overcast,0,2011-12-19 11:53:00
4:24 AM,46.4,42.8,87,30.08,10.0,Calm,Calm,-,N/A,,Mostly Cloudy,0,2011-12-19 12:24:00
4:53 AM,43.0,42.1,97,30.08,10.0,Calm,Calm,-,N/A,,Partly Cloudy,0,2011-12-19 12:53:00
5:53 AM,44.1,42.1,93,30.10,10.0,NNW,4.6,-,N/A,,Partly Cloudy,340,2011-12-19 13:53:00
6:19 AM,44.6,42.8,93,30.11,10.0,NNW,5.8,-,N/A,,Mostly Cloudy,340,2011-12-19 14:19:00
6:53 AM,44.1,43.0,96,30.11,9.0,NNW,4.6,-,N/A,,Scattered Clouds,330,2011-12-19 14:53:00
7:53 AM,43.0,42.1,97,30.12,3.0,Calm,Calm,-,N/A,,Scattered Clouds,0,2011-12-19 15:53:00
8:20 AM,44.6,42.8,93,30.12,5.0,NW,3.5,-,N/A,,Scattered Clouds,310,2011-12-19 16:20:00
8:53 AM,46.9,44.1,90,30.12,6.0,NNW,4.6,-,N/A,,Partly Cloudy,330,2011-12-19 16:53:00
9:53 AM,50.0,44.6,82,30.12,8.0,NNW,6.9,-,N/A,,Partly Cloudy,330,2011-12-19 17:53:00
10:53 AM,50.0,43.0,77,30.12,8.0,WNW,9.2,-,N/A,,Partly Cloudy,290,2011-12-19 18:53:00
11:53 AM,51.1,42.1,71,30.09,10.0,West,6.9,-,N/A,,Clear,280,2011-12-19 19:53:00
12:53 PM,52.0,42.1,69,30.06,10.0,WSW,6.9,-,N/A,,Partly Cloudy,250,2011-12-19 20:53:00
1:53 PM,54.0,41.0,62,30.05,10.0,SW,5.8,-,N/A,,Partly Cloudy,220,2011-12-19 21:53:00
2:53 PM,54.0,39.0,57,30.04,10.0,West,5.8,-,N/A,,Partly Cloudy,280,2011-12-19 22:53:00
3:53 PM,55.0,37.9,53,30.04,10.0,Calm,Calm,-,N/A,,Partly Cloudy,0,2011-12-19 23:53:00
4:53 PM,52.0,41.0,66,30.04,10.0,Calm,Calm,-,N/A,,Scattered Clouds,0,2011-12-20 00:53:00
5:53 PM,48.2,44.6,87,30.06,10.0,NNW,4.6,-,N/A,,Scattered Clouds,330,2011-12-20 01:53:00
6:53 PM,50.0,45.0,83,30.07,10.0,Calm,Calm,-,N/A,,Scattered Clouds,0,2011-12-20 02:53:00
7:53 PM,46.0,44.1,93,30.08,10.0,NNW,3.5,-,N/A,,Scattered Clouds,330,2011-12-20 03:53:00
8:53 PM,45.0,43.0,93,30.09,10.0,Calm,Calm,-,N/A,,Partly Cloudy,0,2011-12-20 04:53:00
9:53 PM,39.0,39.0,100,30.10,10.0,Calm,Calm,-,N/A,,Partly Cloudy,0,2011-12-20 05:53:00
10:53 PM,37.9,36.0,93,30.10,10.0,NE,3.5,-,N/A,,Partly Cloudy,50,2011-12-20 06:53:00
11:53 PM,37.9,36.0,93,30.10,10.0,Calm,Calm,-,N/A,,Clear,0,2011-12-20 07:53:00